Location: Recife
(8.0585°S, 34.8848°W)
Time: 21:15:11
(UTC-03:00)

S-56A Canister/Altair - Pass Details

Date: 18 April 2026
Orbit: 633 x 2484 km, 38.9° (Epoch: 16 May)

Event Time Altitude Azimuth Distance (km) Brightness Sun altitude
Rises 13:27:45 0° 301° (WNW) 5,771 12.6 52.7°
Reaches altitude 10° 13:32:00 10° 298° (WNW) 4,546 12.3 51.8°
Maximum altitude 13:43:35 56° 222° (SW) 1,795 10.3 49.3°
Drops below altitude 10° 13:51:18 10° 145° (SE) 3,091 10.4 47.6°
Sets 13:53:41 0° 140° (SE) 3,846 10.7 47.0°
